LiveATC.Net - Listen to live air traffic control over the Internet! Contact LiveATC.net for advertising information


ICAO: MMGL  IATA: GDL   Airport: Don Miguel Hidalgo y Costilla International
City: Guadalajara
Country: Mexico   Continent: North America
MMGL METAR Weather: MMGL 081348Z 00000KT 8SM FEW090 BKN300 03/M02 A3028 RMK 8/032
MMGL Flight Activity (FlightAware)
MMGL Twr/App
Feed Status: DOWN
Last heard on: 2016-02-07 19:32:03 (0 days 18 hours 35 minutes ago)
MMGL Twr/App Audio Archives
FacilityFrequency
Guadalajara Approach120.800
Guadalajara Tower118.100


NOTICE

Unauthorized use prohibited. See LiveATC.net Terms of Service


Find LiveATC Audio Streams


Airport/ARTCC Code

Frequency
(e.g., 124.400, 128.75)
Site-wide search

Browse LiveATC Feeds
LiveATC Coverage Map
Top 50 LiveATC Feeds
Bad Weather Areas

LiveATC FAQ
Offer a LiveATC Feed
Contact LiveATC.net
Press Inquiries

LiveATC on iPhone
LiveATC on Android

Windows Phone
Windows 8/10

LiveATC Mobile
(Mobile browser)

ATC Audio Archives
Interesting Recordings

LiveATC Forums


Home Page
About LiveATC.net
Make a Donation
LiveATC Store

Terms of Use
Privacy Policy

Canadian Air Freqs

AIRMETs/SIGMETs

FAA Airport Status
Nat'l Airspace Status
Arrival Demand Charts


Server Software By:
Icecast.org
Liquidsoap

Please make a donation to help us keep growing!